Location: Tierra Monte Subdivision
(35.2092°N, 106.4864°W)
Time: 03:26:08
(UTC+00:00)

Cosmos 1939 Rocket - Pass Details

Date: 30 March 2020
Orbit: 533 x 584 km, 97.4° (Epoch: 29 May)

Event Time Altitude Azimuth Distance (km) Brightness Sun altitude
Rises 02:06:30 0° 180° (S) 2,744 6.3 -9.1°
Reaches altitude 10° 02:08:42 10° 186° (S) 1,843 5.4 -9.5°
Maximum altitude 02:12:33 47° 261° (W) 739 4.0 -10.3°
Drops below altitude 10° 02:16:22 10° 336° (NNW) 1,827 6.0 -11.1°
Sets 02:18:33 0° 342° (NNW) 2,716 6.8 -11.5°
